{"data":{"norad_id":82303,"intl_designator":"","name":"UNKNOWN","alt_names":[],"object_type":"UNKNOWN","status":"UNKNOWN","operator":null,"country":null,"launch_date":null,"launch_site_code":null,"launch_vehicle":null,"mission":null,"orbit_class":"UNKNOWN","rcs_meters":null,"size_class":null,"mass_kg":null,"dimensions":null,"purposes":[],"wikipedia_slug":null,"has_3d_model":false,"image_url":null,"decayed_at":null,"tle_current":{"epoch":"2026-05-23T11:23:34.090368Z","epoch_age_seconds":202979,"freshness":"STALE","line1":"1 82303U          26143.47470012  .00030241  00000+0  21214-1 0  9997","line2":"2 82303  81.9098 222.3261 0089699 192.1747 185.3789 13.96143484536922","mean_motion":13.96143484,"eccentricity":0.0089699,"inclination_deg":81.9098,"raan_deg":222.3261,"arg_perigee_deg":192.1747,"mean_anomaly_deg":185.3789,"bstar":0.021214,"rev_number":53692,"period_min":103.14126137482,"perigee_km":841.83174326802,"apogee_km":972.52887876419,"semimajor_km":7285.3173110161,"source":"CELESTRAK","updated_at":"2026-05-25T13:38:11.186770Z"}}}